Calumet, MI

8:15 PM EST on February 25, 2017 (GMT -0500)
Houghton County Memorial

Weather History for KCMX - February, 2013

Change the Weather History Date:

Tuesday, February 26, 2013

  Actual Average Record
Temperature  
Mean Temperature 24 °F -  
Max Temperature 33 °F 29 °F 48 °F (1976)
Min Temperature 16 °F 12 °F -14 °F (2015)
Degree Days  
Heating Degree Days 40    
Moisture  
Dew Point 22 °F    
Average Humidity 85    
Maximum Humidity 100    
Minimum Humidity 72    
Precipitation  
Precipitation 0.00 in - - ()
Sea Level Pressure  
Sea Level Pressure 30.07 in    
Wind  
Wind Speed 4 mph (ENE)    
Max Wind Speed 15 mph    
Max Gust Speed 17 mph    
Visibility 9 miles    
Events      
Averages and records for this station are not official NWS values.
T = Trace of Precipitation, MM = Missing Value Source: NWS Daily Summary

Daily Weather History Graph

Daily Weather History Graph

Search for Another Location

Airport or City:

Trip Planner

Search our weather history database for the weather conditions in past years. The results will help you decide how hot, cold, wet, or windy it might be!

Date:

Astronomy

Feb. 26, 2013 Rise Set
Actual Time 7:39 AM EST 6:35 PM EST
Civil Twilight 7:08 AM EST 7:06 PM EST
Nautical Twilight 6:33 AM EST 7:41 PM EST
Astronomical Twilight 5:57 AM EST 8:16 PM EST
Moon 8:00 PM EST 7:35 AM EST
Length of Visible Light 11h 57m
Length of Day
10h 56m
Full, 99% of the Moon is Illuminated
Feb 26
Full
Mar 4
Last Quarter
Mar 11
New
Mar 19
First Quarter
Mar 27
Full

Hourly Weather History & Observations

Time (EST) Temp. Windchill Dew Point Humidity Pressure Visibility Wind Dir Wind Speed Gust Speed Precip Events Conditions
12:53 AM 26.1 °F - 24.1 °F 92% 30.09 in 10.0 mi Calm Calm - N/A   Overcast
1:53 AM 26.1 °F - 24.1 °F 92% 30.11 in 10.0 mi Calm Calm - N/A   Mostly Cloudy
2:42 AM 17.6 °F - 17.6 °F 100% 30.08 in 1.8 mi Calm Calm - N/A   Mostly Cloudy
2:51 AM 17.6 °F - 15.8 °F 93% 30.08 in 3.0 mi Calm Calm - N/A   Mostly Cloudy
2:53 AM 19.0 °F - 17.1 °F 92% 30.13 in 5.0 mi Calm Calm - N/A   Mostly Cloudy
3:53 AM 21.9 °F - 21.9 °F 100% 30.11 in 10.0 mi Calm Calm - N/A   Overcast
4:53 AM 16.0 °F - 15.1 °F 96% 30.12 in 10.0 mi Calm Calm - N/A   Mostly Cloudy
5:53 AM 19.0 °F - 17.1 °F 92% 30.12 in 10.0 mi Calm Calm - N/A   Clear
6:53 AM 18.0 °F 11.1 °F 17.1 °F 96% 30.10 in 10.0 mi NNE 4.6 mph - N/A   Clear
7:53 AM 19.0 °F 13.9 °F 17.1 °F 92% 30.11 in 10.0 mi ENE 3.5 mph - N/A   Clear
8:53 AM 25.0 °F 18.1 °F 21.9 °F 88% 30.11 in 10.0 mi ENE 5.8 mph - N/A   Clear
9:53 AM 28.4 °F 22.2 °F 24.8 °F 86% 30.07 in 10.0 mi ENE 5.8 mph - N/A   Clear
10:03 AM 28.4 °F 21.2 °F 24.8 °F 86% 30.08 in 10.0 mi East 6.9 mph - N/A   Partly Cloudy
10:53 AM 30.9 °F 24.3 °F 27.0 °F 85% 30.11 in 10.0 mi NE 6.9 mph - N/A   Clear
11:53 AM 33.1 °F 24.9 °F 27.0 °F 78% 30.10 in 10.0 mi ESE 10.4 mph - N/A   Clear
12:53 PM 33.1 °F 23.9 °F 25.0 °F 72% 30.08 in 10.0 mi ESE 12.7 mph - N/A   Mostly Cloudy
1:53 PM 32.0 °F 23.0 °F 27.0 °F 82% 30.07 in 10.0 mi ESE 11.5 mph - N/A   Overcast
2:53 PM 32.0 °F 21.6 °F 24.1 °F 73% 30.05 in 10.0 mi East 15.0 mph - N/A   Overcast
3:53 PM 32.0 °F 23.0 °F 24.1 °F 73% 30.04 in 10.0 mi East 11.5 mph - N/A   Overcast
4:53 PM 30.9 °F 22.2 °F 23.0 °F 72% 30.04 in 10.0 mi East 10.4 mph - N/A   Overcast
5:53 PM 30.9 °F 22.8 °F 24.1 °F 76% 30.04 in 10.0 mi East 9.2 mph 17.3 mph N/A   Overcast
6:53 PM 30.0 °F 21.1 °F 23.0 °F 75% 30.03 in 10.0 mi ENE 10.4 mph - N/A   Overcast
7:53 PM 30.0 °F 22.4 °F 23.0 °F 75% 30.04 in 10.0 mi ENE 8.1 mph - N/A   Overcast
8:53 PM 30.0 °F 21.7 °F 24.1 °F 79% 30.03 in 10.0 mi East 9.2 mph - N/A   Overcast
9:53 PM 30.0 °F 22.4 °F 24.1 °F 79% 30.00 in 10.0 mi ENE 8.1 mph - N/A   Overcast
10:53 PM 30.0 °F 21.1 °F 24.1 °F 79% 29.99 in 10.0 mi ENE 10.4 mph - N/A   Overcast
11:53 PM 30.0 °F 21.7 °F 24.1 °F 79% 29.97 in 10.0 mi ENE 9.2 mph - N/A   Overcast